Location: Davayat
(45.9471°N, 3.1105°E)
Time: 22:20:20
(UTC+00:00)

Meteor 2-12 Rocket - Pass Details

Date: 20 April 2021
Orbit: 935 x 958 km, 82.5° (Epoch: 16 May)

Event Time Altitude Azimuth Distance (km) Brightness Sun altitude
Rises 01:15:33 0° 342° (NNW) 3,632 8.1 -29.1°
Reaches altitude 10° 01:18:20 10° 332° (NNW) 2,679 7.2 -28.9°
Enters shadow 01:22:34 29° 291° (WNW) 1,664 5.6 -28.6°
